FW1946 Weather Reports


Display with metric or nautical units.
time (UTC)temp
F
wind
direction
speed
MPH
gust
MPH
rain 1hr
in
rain 24hr
in
rain mn
in
humidity
%
barometer
mb
20260831231535 83 353 0.0 3.0 0.00 0.00 0.00 27 1008.3
20260831230035 84 140 0.0 4.0 0.00 0.00 0.00 28 1008.6
20260831223036 83 6 0.0 5.0 0.00 0.00 0.00 27 1009.1
20260831220035 82 320 0.0 7.0 0.00 0.00 0.00 31 1009.5
20260831214535 82 166 1.0 6.0 0.00 0.00 0.00 32 1009.9
20260831211538 82 84 1.0 6.0 0.00 0.00 0.00 32 1010.3
20260831210030 83 162 1.0 6.0 0.00 0.00 0.00 32 1010.5
20260831204534 82 91 1.0 5.0 0.00 0.00 0.00 32 1010.7
20260831203143 82 7 2.0 8.0 0.00 0.00 0.00 32 1011.0
20260831201533 81 32 2.0 7.0 0.00 0.00 0.00 33 1011.5
20260831200142 80 20 2.0 8.0 0.00 0.00 0.00 33 1011.7
20260831194532 79 20 3.0 9.0 0.00 0.00 0.00 34 1011.9
20260831193036 79 10 2.0 9.0 0.00 0.00 0.00 34 1012.2
20260831191535 79 8 2.0 9.0 0.00 0.00 0.00 35 1012.6
20260831190028 78 61 1.0 8.0 0.00 0.00 0.00 38 1012.9
20260831184531 76 22 2.0 8.0 0.00 0.00 0.00 42 1013.2
20260831183034 74 16 1.0 7.0 0.00 0.00 0.00 45 1013.4
20260831181535 73 1 3.0 11.0 0.00 0.00 0.00 49 1013.7
20260831180110 71 2 3.0 9.0 0.00 0.00 0.00 52 1013.9
20260831174536 70 357 3.0 7.0 0.00 0.00 0.00 57 1014.0
20260831170109 65 337 1.0 3.0 0.00 0.00 0.00 65 1014.6
20260831164642 63 8 0.0 3.0 0.00 0.00 0.00 69 1014.9
20260831163035 61 356 0.0 3.0 0.00 0.00 0.00 72 1015.0
20260831161531 61 325 0.0 3.0 0.00 0.00 0.00 74 1015.3
20260831160033 57 180 0.0 1.0 0.00 0.00 0.00 83 1015.4
20260831153034 54 180 0.0 0.0 0.00 0.00 0.00 87 1015.5
20260831151530 52 180 0.0 1.0 0.00 0.00 0.00 91 1015.5
20260831144528 46 188 0.0 1.0 0.00 0.00 0.00 94 1015.3
20260831143030 45 202 0.0 0.0 0.00 0.00 0.00 93 1015.3
20260831141609 45 202 0.0 0.0 0.00 0.00 0.00 93 1015.1
20260831140036 45 202 0.0 0.0 0.00 0.00 0.00 93 1015.0
20260831134532 45 202 0.0 0.0 0.00 0.00 0.00 93 1015.0
20260831133033 45 202 0.0 0.0 0.00 0.00 0.00 92 1015.0
20260831124536 46 202 0.0 0.0 0.00 0.00 0.00 91 1015.0
20260831121608 47 202 0.0 0.0 0.00 0.00 0.00 90 1014.9
20260831120111 48 202 0.0 0.0 0.00 0.00 0.00 90 1014.9
20260831113035 48 162 0.0 3.0 0.00 0.00 0.00 91 1015.0
20260831104536 48 202 0.0 0.0 0.00 0.00 0.00 90 1015.0
20260831103032 49 202 0.0 0.0 0.00 0.00 0.00 89 1015.0
20260831093035 50 202 0.0 1.0 0.00 0.00 0.00 88 1015.4
20260831091532 49 202 0.0 1.0 0.00 0.00 0.00 87 1015.4
20260831090035 50 202 0.0 0.0 0.00 0.00 0.00 86 1015.5
20260831084534 50 202 0.0 0.0 0.00 0.00 0.00 85 1015.5
20260831083032 51 202 0.0 0.0 0.00 0.00 0.00 84 1015.6
20260831081536 52 202 0.0 0.0 0.00 0.00 0.00 82 1015.8
20260831080143 53 202 0.0 1.0 0.00 0.00 0.00 82 1015.8
20260831074536 54 160 0.0 2.0 0.00 0.00 0.00 82 1015.8
20260831073059 53 157 0.0 1.0 0.00 0.00 0.00 81 1015.9
20260831070040 54 157 0.0 1.0 0.00 0.00 0.00 80 1015.9
20260831063116 55 202 0.0 2.0 0.00 0.00 0.00 80 1016.0
20260831060032 54 202 0.0 1.0 0.00 0.00 0.00 81 1016.1
20260831054535 56 202 0.0 0.0 0.00 0.00 0.00 78 1016.2
20260831051533 57 202 0.0 0.0 0.00 0.00 0.00 78 1016.2
20260831050109 57 202 0.0 2.0 0.00 0.00 0.00 76 1016.2
20260831044535 58 202 0.0 2.0 0.00 0.00 0.00 73 1016.2
20260831043030 60 214 0.0 2.0 0.00 0.00 0.00 69 1016.1
20260831034530 61 225 0.0 1.0 0.00 0.00 0.00 66 1015.9
20260831031536 64 206 0.0 4.0 0.00 0.00 0.00 60 1015.7
20260831024531 66 198 0.0 2.0 0.00 0.00 0.00 56 1015.7
20260831021608 69 225 0.0 6.0 0.00 0.00 0.00 49 1015.5
20260831020143 70 235 0.0 6.0 0.00 0.00 0.00 46 1015.4
20260831014529 72 258 0.0 6.0 0.00 0.00 0.00 44 1015.4
20260831013105 73 236 1.0 9.0 0.00 0.00 0.00 43 1015.5
20260831011529 73 250 0.0 7.0 0.00 0.00 0.00 41 1015.5